Theta_e
315 314 314 314 315 314 315 314 311 310 310 310 310 309 309 309 308 306 306 307 305 304 304 305 306 306 303 305 305 304 303 307 305 307 306 309 308 308 310 313 315 313 311
315 315 314 314 316 315 313 310 309 309 311 310 309 308 308 309 305 304 304 304 303 303 304 303 303 307 303 303 304 301 301 302 302 298 303 305 306 308 307 308 311 313 310
316 315 314 315 313 313 312 311 312 310 311 310 307 306 306 304 303 302 302 302 302 303 302 302 302 303 302 303 302 304 303 303 302 300 298 302 302 306 305 305 307 308 311
317 316 314 314 312 311 311 313 312 309 307 306 305 305 303 303 302 301 300 299 299 300 301 302 302 303 301 299 300 298 299 297 297 295 295 296 298 302 301 300 301 304 304
316 315 313 313 313 313 310 309 308 307 304 304 304 303 302 302 302 299 298 297 297 298 298 299 300 307 307 304 300 298 296 295 294 293 293 293 293 294 295 299 298 302 301
314 313 314 314 312 309 308 305 303 300 300 301 302 302 300 303 302 302 300 295 296 295 294 296 297 304 303 303 304 304 301 295 293 292 292 290 291 293 295 296 297 296 296
314 314 312 310 308 305 302 300 299 298 298 298 299 300 298 298 300 299 301 294 294 293 293 294 297 302 302 300 300 301 300 301 301 296 291 290 291 295 299 297 299 296 299
314 310 307 305 302 300 299 298 298 296 296 297 297 297 297 299 300 298 298 293 293 293 294 295 295 298 302 301 299 295 295 295 295 297 296 296 296 300 301 302 302 300 297
306 304 303 303 301 299 298 297 297 296 295 296 297 297 295 295 299 297 295 293 293 293 295 296 297 300 299 298 295 293 294 294 299 301 301 300 299 300 300 297 296 297 295
303 303 303 302 300 298 298 299 297 294 293 297 297 296 300 294 297 297 296 293 291 292 293 295 298 297 297 296 292 291 290 291 292 294 294 295 297 298 301 295 294 294 294
304 303 302 300 299 299 299 297 293 292 291 293 293 291 293 295 293 296 296 292 291 291 292 293 295 297 295 295 294 290 291 293 293 290 290 292 294 294 295 295 294 295 292
303 301 300 299 301 299 296 292 291 291 290 289 289 289 290 291 295 294 295 295 296 291 291 292 292 295 293 293 292 294 294 293 289 289 289 290 290 292 294 295 295 297 299
300 298 298 298 297 297 294 292 291 290 289 288 288 287 288 290 290 294 294 294 295 292 291 295 295 292 292 291 294 295 293 289 288 288 288 288 289 291 292 294 295 296 296
298 297 297 296 295 296 296 294 291 290 289 289 288 287 287 288 289 289 290 289 292 291 293 292 294 292 292 292 290 290 290 290 289 287 287 289 291 291 290 292 291 292 293
298 297 295 295 295 295 295 294 293 291 291 290 289 288 288 288 289 291 290 289 289 289 290 290 288 287 287 287 288 288 288 289 288 287 287 288 289 290 290 292 291 290 290
297 296 295 295 295 296 295 295 295 294 293 292 292 290 289 292 292 292 291 291 291 291 289 287 286 286 287 287 287 287 287 288 287 286 285 286 287 287 288 291 290 289 289
297 296 296 295 295 294 293 293 292 293 293 292 291 291 291 292 291 291 291 290 290 290 288 287 287 287 287 289 288 288 286 286 286 285 284 285 287 288 288 288 289 289 290
297 297 297 295 294 294 294 293 292 291 291 291 292 291 292 291 291 290 290 289 289 289 287 288 288 288 288 289 289 287 287 285 284 284 283 284 284 286 286 287 287 288 288
296 295 295 294 294 295 293 292 292 292 291 291 292 292 291 291 291 290 290 288 288 288 288 287 289 288 289 289 289 288 287 286 284 284 283 283 283 283 284 285 286 285 286
296 295 293 294 293 291 292 292 291 290 290 291 291 290 289 287 288 288 289 289 289 289 288 288 289 289 289 290 289 288 287 286 285 283 282 282 283 283 282 283 284 285 287
296 296 292 292 291 292 291 290 290 289 289 291 291 291 286 287 287 287 288 289 289 289 289 289 289 289 290 290 289 288 287 286 285 283 282 282 282 281 282 283 283 284 285
297 297 295 293 293 292 292 291 290 290 291 291 291 292 285 286 286 287 288 289 290 290 290 290 290 290 290 290 289 288 287 286 285 283 282 281 281 281 281 282 283 284 284
297 296 296 295 295 292 292 291 290 290 291 290 290 290 289 288 287 287 288 290 290 290 290 290 290 290 291 291 290 289 287 286 286 283 282 281 280 281 281 281 282 283 283
296 296 294 294 294 293 292 292 290 289 291 291 290 290 290 290 289 290 290 290 290 291 291 291 291 292 292 291 291 290 288 287 285 284 284 282 282 282 282 282 283 284 284
296 294 293 293 293 292 292 291 291 291 291 291 291 291 291 290 290 291 291 291 291 291 292 292 292 293 293 293 292 291 287 284 284 283 282 282 281 283 282 282 283 283 283
295 295 294 292 292 292 292 292 291 291 292 293 292 292 292 291 291 291 292 292 292 292 292 292 292 293 293 294 293 291 287 285 284 283 284 283 284 285 285 283 283 283 283
Wind_Speed
8 5 8 6 7 7 6 6 6 5 5 5 4 4 4 4 5 5 5 5 5 5 5 6 6 5 4 4 3 3 3 2 3 3 3 3 5 9 11 8 7 7 8
7 7 7 7 8 9 7 6 6 7 4 5 3 4 5 5 5 6 6 6 6 6 7 5 6 5 6 4 3 4 3 4 2 5 4 4 4 8 7 8 8 6 7
6 7 7 8 5 7 7 6 5 5 5 4 5 5 5 5 5 6 5 6 6 5 5 6 6 6 6 5 4 5 4 5 3 3 4 3 3 3 7 6 7 7 7
8 8 8 8 8 8 6 6 4 6 5 4 4 4 4 4 4 5 5 6 5 5 5 6 6 5 5 6 5 5 5 5 4 4 4 4 2 4 3 5 9 5 9
10 10 8 6 7 6 6 7 3 6 4 3 4 3 3 4 4 6 6 6 6 7 7 7 6 8 11 9 4 5 5 3 3 3 3 3 4 4 4 4 4 8 7
11 11 10 8 7 7 4 6 5 5 5 4 4 3 3 3 6 8 7 6 6 5 6 7 7 8 8 12 13 14 8 4 3 2 3 3 5 4 3 4 5 4 5
12 11 9 9 9 6 5 6 5 4 3 3 2 0 2 2 6 8 9 4 4 5 6 6 7 6 7 6 12 13 11 12 7 3 3 3 4 3 4 5 5 3 4
11 10 10 9 8 6 6 5 3 2 2 2 2 3 2 2 5 6 8 6 5 6 6 6 6 7 7 8 8 7 7 7 6 4 5 8 6 8 5 5 7 5 5
11 11 9 9 7 6 6 4 2 2 2 1 2 4 3 2 5 7 6 5 6 7 6 6 6 8 11 14 6 7 8 8 8 9 9 10 10 8 5 4 4 5 5
12 11 9 8 8 7 6 5 2 3 3 2 4 3 4 4 6 7 5 4 6 5 6 6 11 10 16 13 5 5 6 5 7 9 9 10 8 7 9 1 3 3 4
11 10 9 7 7 7 6 4 4 5 5 5 4 4 4 4 5 7 7 3 3 4 4 6 6 15 12 10 6 5 4 7 7 5 5 5 6 5 4 5 3 3 3
12 11 9 7 6 5 7 4 6 6 6 3 3 3 3 3 5 5 6 4 4 2 4 4 5 12 10 11 7 11 11 7 5 5 4 5 5 5 8 6 6 4 4
10 8 8 6 6 7 7 5 4 4 4 2 2 1 3 3 3 5 5 6 6 3 3 6 7 8 10 8 11 13 9 5 4 5 4 4 4 6 8 6 5 4 5
10 8 7 7 6 6 4 4 4 4 3 2 2 2 2 3 3 2 3 4 6 5 6 5 4 4 6 6 6 7 5 4 4 4 4 5 4 6 5 5 4 4 3
9 8 6 5 6 5 4 5 5 5 5 4 4 3 3 3 4 3 2 5 5 5 5 3 4 4 4 5 5 5 4 5 6 5 5 6 6 6 6 6 3 3 3
9 7 5 5 4 4 4 2 6 6 9 9 8 7 4 8 7 7 4 6 8 3 3 2 2 3 3 4 4 4 4 6 4 4 4 4 4 5 7 7 3 3 3
9 7 5 5 4 4 3 3 3 1 1 7 9 9 8 8 6 7 6 6 5 1 2 1 2 2 3 4 4 3 4 4 4 4 4 5 5 5 7 6 6 3 4
7 10 7 5 5 4 4 4 4 3 3 3 7 10 10 8 8 7 6 1 1 2 1 1 2 3 3 3 3 3 3 4 3 4 4 4 4 5 5 6 5 4 4
7 5 5 5 4 5 4 3 4 4 4 4 2 2 4 5 8 3 5 2 3 3 2 3 3 2 2 3 3 3 3 3 3 4 3 4 4 3 4 4 5 5 4
6 10 7 5 4 3 3 3 3 3 2 3 4 3 0 2 2 3 3 3 4 4 4 4 4 4 4 4 3 3 4 3 4 3 4 4 4 3 3 5 4 5 4
5 5 6 4 4 4 3 5 4 4 4 4 5 4 6 4 4 4 4 4 5 5 5 5 5 5 5 5 4 4 4 4 3 3 4 4 4 4 4 4 4 4 4
5 5 4 5 4 4 4 4 4 5 5 4 5 4 5 4 5 5 5 5 5 6 5 5 5 5 5 5 5 5 5 4 4 3 4 4 4 4 4 4 4 4 4
5 5 5 4 5 5 4 4 4 5 5 5 5 4 4 5 5 5 6 6 5 5 5 5 6 5 6 5 5 5 5 5 5 3 4 3 4 3 3 3 4 4 4
6 5 5 4 3 3 4 5 5 6 5 5 5 5 5 5 6 7 6 6 5 6 5 5 6 9 8 7 5 5 6 5 4 4 4 3 4 4 3 3 4 5 5
5 5 5 5 4 3 2 4 5 5 5 5 5 5 5 6 6 6 6 6 6 6 8 7 7 10 13 14 11 10 8 8 7 5 3 4 5 6 5 4 5 5 6
5 5 5 4 4 4 4 4 5 5 6 5 5 6 6 6 6 6 6 6 6 7 8 6 8 13 14 12 13 12 11 10 7 7 4 3 5 4 4 5 7 4 6
Wind_Direction
159 131 140 156 133 123 115 111 103 92 82 75 71 56 31 14 19 21 4 19 13 360 351 356 346 335 326 329 353 345 349 330 297 302 265 303 328 335 336 335 336 340 339
142 152 158 139 138 124 113 112 112 110 121 99 62 50 30 26 27 26 16 3 3 351 338 336 350 336 326 323 339 359 325 315 300 297 301 326 333 322 316 323 328 334 329
139 120 105 110 112 113 120 118 126 93 72 45 48 38 45 54 39 23 19 3 353 348 328 341 338 347 348 342 340 346 339 330 312 289 298 304 294 308 339 327 327 318 335
115 116 126 128 138 129 120 102 102 104 79 58 46 59 54 58 45 21 12 1 350 356 345 355 346 346 355 351 354 348 346 339 341 327 299 295 304 302 305 315 330 321 319
130 127 132 125 124 108 94 101 102 86 81 84 86 61 60 52 31 18 7 3 7 4 356 347 337 334 1 359 354 329 337 321 314 312 308 311 300 323 325 303 288 303 303
134 135 135 130 125 117 140 110 101 90 71 56 45 49 51 35 25 20 28 12 12 5 341 330 328 340 350 348 345 345 346 329 310 287 281 296 281 286 281 292 301 311 321
139 143 138 133 127 123 112 102 90 79 77 70 42 37 80 27 25 16 23 16 7 347 341 339 336 338 332 336 335 328 329 326 308 257 268 262 274 262 298 286 295 269 264
138 135 131 123 123 120 107 97 88 66 81 95 70 78 104 25 19 12 25 10 358 344 340 330 327 319 321 324 325 318 303 291 297 284 233 270 248 284 269 266 282 290 277
137 134 131 131 123 113 110 126 118 101 57 117 121 101 89 4 10 21 22 5 356 338 330 330 328 321 317 328 315 310 312 315 319 315 295 287 279 292 324 330 329 330 312
136 136 138 135 135 143 151 143 100 71 41 96 95 57 67 26 357 1 24 5 346 331 328 323 323 326 331 338 344 327 330 317 331 337 339 338 334 317 320 315 296 310 306
133 131 134 137 141 149 138 114 111 94 70 62 62 21 33 23 3 10 17 6 330 325 329 333 329 338 344 0 13 18 317 297 329 337 324 330 332 335 323 318 275 229 282
140 144 144 144 148 143 124 116 109 109 93 72 42 7 345 345 356 345 352 352 336 323 319 302 303 327 357 2 2 350 358 3 8 0 355 348 335 331 325 318 303 296 230
135 139 148 151 141 137 130 136 118 124 121 121 99 36 309 321 315 325 321 324 322 323 297 310 318 7 2 358 351 359 2 8 358 9 344 321 298 290 305 332 316 332 324
144 147 148 146 142 138 137 148 145 160 170 177 172 221 271 295 290 292 323 331 330 334 343 349 354 13 5 358 3 356 356 360 358 331 324 298 308 349 345 342 329 336 356
153 151 153 154 155 151 162 173 188 205 177 184 209 195 197 270 255 233 306 335 323 304 319 11 11 1 347 346 348 351 347 1 8 345 351 348 346 341 341 331 336 336 27
152 152 162 147 164 155 166 219 236 228 215 217 207 180 227 238 267 295 321 316 320 352 49 20 340 336 333 327 344 334 347 359 345 344 343 340 339 337 334 338 343 356 18
153 157 156 147 167 155 184 192 242 343 234 232 239 230 225 240 272 291 307 314 326 58 63 328 306 318 314 328 342 338 333 329 326 347 346 337 338 332 344 348 348 354 18
147 155 159 165 168 161 181 205 211 213 239 267 254 231 250 224 263 279 283 281 10 22 199 250 280 301 316 327 329 329 317 334 340 342 343 337 341 337 343 351 351 348 340
147 150 143 157 172 185 184 209 218 214 226 246 273 283 258 225 255 284 162 163 194 227 237 251 239 264 277 283 282 297 305 317 318 329 334 335 335 344 332 331 334 333 347
157 156 151 162 174 190 212 222 197 189 219 221 227 229 232 85 220 234 222 201 204 232 229 237 243 243 249 251 264 270 301 324 332 330 327 330 329 336 330 325 330 334 329
149 152 153 162 180 194 200 196 183 193 212 216 226 213 203 183 225 239 237 222 219 228 229 224 234 237 244 243 244 250 255 280 302 312 318 318 328 329 321 308 307 307 307
154 146 163 188 191 208 222 203 193 209 210 205 232 243 197 219 226 239 248 241 231 224 221 217 225 224 227 229 230 236 248 265 287 294 306 309 314 318 316 310 309 310 314
151 144 164 171 191 211 222 201 203 217 223 227 227 236 215 226 224 232 242 244 236 236 228 218 226 238 238 235 224 217 218 225 236 222 253 279 292 297 299 300 309 317 318
154 165 167 166 173 189 217 226 217 228 231 232 217 224 227 230 226 231 238 243 241 244 232 224 224 232 243 239 228 217 217 209 201 230 245 268 288 289 275 282 290 294 290
160 173 179 185 204 230 249 225 229 236 236 231 234 229 232 230 232 237 238 236 238 237 249 234 227 235 241 242 234 221 208 197 194 195 216 252 269 282 276 279 282 289 291
173 185 194 192 203 213 222 227 230 235 232 232 229 229 233 230 234 240 244 240 242 245 246 244 240 237 243 246 242 224 192 186 191 197 189 249 270 274 271 276 289 285 286